Location: Cz?stochówka
(50.8142°N, 19.0915°E)
Time: 10:32:32
(UTC+00:00)

USA 32 - Pass Details

Date: 13 January 2026
Orbit: 774 x 780 km, 85.0° (Epoch: 10 February)

Event Time Altitude Azimuth Distance (km) Brightness Sun altitude
Rises 05:35:49 0° 201° (SSW) 3,254 7.3 -9.9°
Reaches altitude 10° 05:38:14 10° 207° (SSW) 2,330 6.5 -9.6°
Maximum altitude 05:43:18 49° 282° (WNW) 1,000 4.2 -8.8°
Drops below altitude 10° 05:48:24 10° 358° (N) 2,347 6.3 -8.1°
Sets 05:50:51 0° 3° (N) 3,279 7.1 -7.8°
